[[{"header":{"parameterUnit":"m.s-1","parameterCategory":1,"la1":30.2991,"la2":30.254,"lo1":-89.0895,"lo2":-89.0444,"dy":0.0017,"dx":0.0017,"nx":28,"ny":28,"refTime":"2025-09-11T21:00:00:Z","depth":0,"parameterNumber":2,"parameterNumberName":"U-component_of_WINDS"},"data":[0,0,0,0,0,0,0,0,0,0,0,0,0,0,0,0,0,0,0,0,0,0,0,0,0,0,0,0,0,0,0,0,0,0,0,0,0,0,0,0,0,0,0,0,0,0,0,0,0,0,0,0,0,0,0,0,0,0,0.4513,0.4515,0,0.4639,0.464,0.4642,0.4612,0.461,0.4607,0.4605,0.4738,0.4744,0.475,0,0,0,0,0,0,0,0,0,0,0,0,0,0.4252,0.4257,0.4513,0.4515,0.4516,0.4639,0.464,0.4642,0.4613,0.461,0.4607,0.4604,0.4737,0.4743,0.475,0,0,0,0,0,0,0,0,0,0,0,0,0,0.437,0.4258,0.4513,0.4516,0.4518,0.4638,0.464,0.4643,0.4613,0.461,0.4606,0.4603,0.4734,0.4743,0.4751,0.4878,0,0,0.4778,0.4782,0,0,0,0,0,0,0,0,0.4364,0.438,0.4514,0.4516,0.4518,0.4606,0.4597,0.4722,0.4614,0.4577,0.4605,0.4601,0.4698,0.4709,0.4741,0.4884,0.489,0.4779,0.4784,0.4788,0.479,0,0,0,0,0,0,0,0.4355,0.4374,0.4563,0.4516,0.4519,0.4513,0.4526,0.4621,0.4656,0.458,0.4578,0.4593,0.4698,0.4732,0.4744,0.4892,0.4778,0.4786,0.4792,0.4795,0.5144,0.5148,0,0,0,0,0,0,0.4345,0.4368,0.4559,0.4567,0.443,0.452,0.4535,0.4582,0.4655,0.4663,0.4596,0.4591,0.4719,0.4734,0.4748,0.49,0.4788,0.4796,0.4801,0.514,0.5145,0.5149,0,0,0,0,0,0,0.434,0.4362,0.4554,0.4467,0.4491,0.4529,0.4582,0.4586,0.462,0.4667,0.4674,0.4624,0.4717,0.4736,0.4845,0.4904,0.48,0.4808,0.5135,0.5141,0.5147,0.5206,0,0,0,0,0,0,0.4332,0.4361,0.4408,0.4468,0.4495,0.4648,0.4585,0.4591,0.4635,0.463,0.4696,0.4703,0.4716,0.4832,0.4854,0.4915,0.4814,0.513,0.5138,0.5145,0.5199,0.5213,0.5225,0,0,0,0,0,0.4323,0.4421,0.4411,0.4434,0.4555,0.4651,0.4667,0.4678,0.464,0.4688,0.4718,0.4701,0.4895,0.4844,0.4868,0.4932,0.5126,0.5136,0.5145,0.5193,0.521,0.5225,0,0,0,0,0,0,0.4369,0.4429,0.4418,0.4538,0.4589,0.4646,0.4708,0.4697,0.4761,0.4754,0.4766,0.4782,0.4893,0.4923,0.4866,0.5058,0.5005,0.5019,0.5033,0.505,0.5064,0.5054,0.4822,0,0,0,0,0,0.4392,0.4464,0.4513,0.4614,0.464,0.467,0.4712,0.4716,0.477,0.4792,0.483,0.4885,0.4958,0.5006,0.5076,0.5203,0.5217,0.5259,0.5272,0.5283,0.5295,0.5364,0.5383,0.5179,0.5179,0.5179,0,0,0.4443,0.4484,0.4529,0.4624,0.4665,0.4739,0.4688,0.477,0.4825,0.4805,0.491,0.494,0.5002,0.512,0.5174,0.5149,0.5354,0.5295,0.5303,0.5309,0.5375,0.5394,0.5411,0.5185,0.5184,0.5183,0,0,0.4572,0.4611,0.4699,0.474,0.4801,0.482,0.4841,0.4899,0.4917,0.5022,0.5008,0.5076,0.5202,0.5246,0.5285,0.543,0.5417,0.5453,0.5523,0.5589,0.5605,0.562,0.5671,0.5689,0.5465,0.5465,0.5465,0,0.4627,0.4738,0.4746,0.4828,0.487,0.4854,0.4943,0.4984,0.5065,0.5095,0.5066,0.5222,0.5263,0.5391,0.5426,0.5459,0.5483,0.5445,0.5602,0.5617,0.563,0.5679,0.5698,0.5469,0.5469,0.5468,0.5468,0,0.4802,0.4879,0.4943,0.502,0.507,0.5156,0.5178,0.5227,0.5227,0.5249,0.5356,0.5404,0.5483,0.5514,0.5515,0.5642,0.5624,0.5599,0.5546,0.5653,0.5699,0.5718,0.5475,0.5473,0.5472,0.5471,0,0,0.4964,0.5043,0.5067,0.5101,0.5167,0.5227,0.5313,0.5388,0.543,0.5487,0.5559,0.5665,0.5641,0.5685,0.5692,0.575,0.5861,0.5717,0.5719,0.5742,0.6003,0.6021,0.6043,0.5853,0.5856,0.5859,0.5998,0,0.5099,0.5246,0.5256,0.5391,0.5461,0.5447,0.5521,0.557,0.5593,0.5658,0.5684,0.5758,0.5722,0.5748,0.5805,0.5836,0.5914,0.5826,0.592,0.5923,0.5904,0.6067,0.6087,0.6215,0.6016,0.6019,0.6021,0,0.5275,0.5335,0.5476,0.5531,0.5561,0.5627,0.5697,0.5759,0.5814,0.5827,0.5876,0.5874,0.5962,0.5906,0.6028,0.5968,0.6007,0.6028,0.6033,0.6041,0.5978,0.608,0.6257,0.6275,0.605,0.6048,0.6046,0,0.5378,0.5494,0.5593,0.5623,0.569,0.5737,0.5767,0.5819,0.5863,0.5925,0.5954,0.6025,0.6064,0.612,0.6138,0.6096,0.6259,0.6205,0.6272,0.6271,0.6306,0.6304,0.6491,0.6333,0.6333,0.6333,0.6332,0,0.5526,0.5613,0.564,0.57,0.5797,0.5808,0.5904,0.5932,0.5978,0.6044,0.6037,0.61,0.612,0.6186,0.6201,0.6299,0.6317,0.633,0.6333,0.633,0.6328,0.6355,0.6347,0.6338,0.6337,0.6336,0.6335,0,0.5656,0.5678,0.5785,0.5839,0.5855,0.5923,0.597,0.6029,0.6051,0.6135,0.6156,0.619,0.6268,0.6291,0.6386,0.6395,0.651,0.6505,0.649,0.649,0.6556,0.6549,0.6766,0.6795,0.6619,0.6621,0.6622,0,0.5749,0.5815,0.5876,0.5919,0.5951,0.6021,0.6065,0.608,0.6127,0.6194,0.6245,0.6322,0.6384,0.6509,0.6543,0.6616,0.6612,0.6683,0.6623,0.6617,0.6611,0.6607,0.6613,0.6694,0.6696,0.6697,0.6699,0,0.5911,0.5918,0.5982,0.605,0.6103,0.6158,0.621,0.6247,0.6268,0.6322,0.64,0.6448,0.6543,0.662,0.6693,0.6725,0.6716,0.6717,0.6737,0.6734,0.6722,0.6728,0.652,0.6712,0.6711,0.671,0.6709,0.6709,0.6025,0.6082,0.6133,0.6205,0.6245,0.6294,0.6352,0.638,0.6445,0.6523,0.6528,0.6613,0.6667,0.6763,0.68,0.6867,0.6846,0.6874,0.6881,0.6887,0.6892,0.6712,0.6881,0.688,0.688,0.688,0.6879,0,0.6185,0.6217,0.6282,0.6355,0.6411,0.6397,0.6454,0.6502,0.6577,0.6627,0.6687,0.6778,0.6851,0.6891,0.6965,0.7011,0.7009,0.703,0.7026,0.7033,0.6907,0.6883,0.703,0.703,0.703,0.703,0.703,0.703,0.6275,0.637,0.6384,0.65,0.6532,0.6614,0.6648,0.6693,0.6733,0.6833,0.6894,0.6919,0.6965,0.7042,0.7109,0.7119,0.7146,0.7169,0.7177,0.7058,0.7042,0.7028,0.7004,0.7175,0.7176,0.7297,0.7298,0.7299]},{"header":{"parameterUnit":"m.s-1","parameterCategory":1,"la1":30.2991,"la2":30.254,"lo1":-89.0895,"lo2":-89.0444,"dy":0.0017,"dx":0.0017,"nx":28,"ny":28,"refTime":"2025-09-11T21:00:00:Z","depth":0,"parameterNumber":3,"parameterNumberName":"V-component_of_WINDS"},"data":[0,0,0,0,0,0,0,0,0,0,0,0,0,0,0,0,0,0,0,0,0,0,0,0,0,0,0,0,0,0,0,0,0,0,0,0,0,0,0,0,0,0,0,0,0,0,0,0,0,0,0,0,0,0,0,0,0,0,0.7421,0.7421,0,0.7404,0.7404,0.7404,0.7323,0.7321,0.732,0.7318,0.7303,0.7304,0.7306,0,0,0,0,0,0,0,0,0,0,0,0,0,0.7384,0.7385,0.7421,0.7421,0.742,0.7404,0.7404,0.7404,0.7324,0.7321,0.7319,0.7317,0.7303,0.7304,0.7306,0,0,0,0,0,0,0,0,0,0,0,0,0,0.7387,0.7386,0.7421,0.7378,0.7375,0.7404,0.7404,0.7403,0.7324,0.7321,0.7318,0.7316,0.7302,0.7304,0.7306,0.7376,0,0,0.7313,0.7313,0,0,0,0,0,0,0,0,0.7387,0.7389,0.7385,0.7381,0.7377,0.7363,0.7385,0.7394,0.7325,0.7343,0.7318,0.7314,0.7325,0.7325,0.7329,0.7375,0.7375,0.7313,0.7314,0.7315,0.7315,0,0,0,0,0,0,0,0.7387,0.7389,0.7414,0.7385,0.738,0.736,0.7358,0.7387,0.7351,0.7342,0.7336,0.7335,0.7323,0.7327,0.7328,0.7374,0.7313,0.7314,0.7316,0.7317,0.7473,0.7476,0,0,0,0,0,0,0.7393,0.7389,0.7415,0.7414,0.7375,0.7363,0.736,0.737,0.735,0.7344,0.7337,0.7331,0.7325,0.7325,0.7327,0.7404,0.7315,0.7317,0.7318,0.747,0.7474,0.7477,0,0,0,0,0,0,0.7392,0.7396,0.7415,0.74,0.7401,0.7367,0.7379,0.7371,0.7375,0.7347,0.734,0.7348,0.7322,0.7324,0.7363,0.7403,0.7318,0.732,0.7467,0.7471,0.7475,0.7562,0,0,0,0,0,0,0.7391,0.7396,0.7422,0.7401,0.7402,0.7453,0.7381,0.7373,0.7379,0.7371,0.7355,0.735,0.732,0.7361,0.7365,0.7404,0.7321,0.7463,0.7469,0.7474,0.7555,0.7568,0.758,0,0,0,0,0,0.739,0.7449,0.7424,0.7428,0.7434,0.7455,0.7455,0.742,0.7382,0.7408,0.7389,0.735,0.7398,0.7365,0.737,0.741,0.746,0.7467,0.7474,0.755,0.7566,0.7579,0,0,0,0,0,0,0.7478,0.7445,0.7418,0.7471,0.7466,0.7441,0.7473,0.7439,0.7445,0.7438,0.7394,0.7391,0.7436,0.7427,0.7391,0.7474,0.7422,0.743,0.7478,0.7494,0.7506,0.7506,0.7323,0,0,0,0,0,0.7503,0.7522,0.7493,0.7543,0.7541,0.7508,0.7516,0.7488,0.7482,0.748,0.7464,0.7459,0.7473,0.7483,0.7494,0.7553,0.7547,0.7583,0.7595,0.7606,0.7613,0.764,0.7654,0.7499,0.7498,0.7498,0,0,0.7556,0.754,0.7555,0.756,0.7553,0.7573,0.7507,0.7532,0.7546,0.7484,0.7519,0.7507,0.7499,0.7548,0.7568,0.7542,0.7654,0.7614,0.7622,0.7624,0.7648,0.7663,0.7676,0.7503,0.7502,0.7501,0,0,0.7661,0.7653,0.7691,0.7685,0.7674,0.7651,0.766,0.764,0.7629,0.7663,0.7615,0.7632,0.7657,0.7652,0.7653,0.7753,0.7717,0.7759,0.7823,0.785,0.7862,0.7873,0.7906,0.7918,0.7766,0.7766,0.7766,0,0.7729,0.7757,0.7716,0.7743,0.7745,0.7687,0.7725,0.7721,0.7716,0.7718,0.7688,0.7716,0.7707,0.7752,0.7776,0.778,0.7787,0.776,0.7863,0.7874,0.7883,0.7914,0.7927,0.7771,0.777,0.777,0.7769,0,0.7838,0.7858,0.7891,0.7884,0.789,0.7923,0.7886,0.7897,0.7869,0.7848,0.7882,0.7869,0.7875,0.7883,0.7857,0.7924,0.7907,0.7871,0.7818,0.7903,0.7932,0.7943,0.7778,0.7776,0.7775,0.7774,0,0,0.8,0.7967,0.798,0.7974,0.7957,0.7972,0.8001,0.8005,0.8014,0.8012,0.8033,0.8054,0.8019,0.8021,0.7993,0.8017,0.8093,0.7977,0.7976,0.7997,0.8162,0.8188,0.8203,0.8069,0.8071,0.8073,0.8162,0,0.8099,0.8145,0.8108,0.8162,0.8178,0.8122,0.8147,0.8139,0.812,0.8131,0.811,0.8125,0.8079,0.8079,0.81,0.8079,0.8125,0.8073,0.8088,0.8089,0.8089,0.8218,0.8246,0.8331,0.8173,0.8175,0.8176,0,0.8221,0.8221,0.8275,0.825,0.8256,0.8279,0.8278,0.829,0.8278,0.8263,0.8262,0.8227,0.8252,0.82,0.8234,0.8199,0.8202,0.8193,0.8195,0.8194,0.8137,0.8218,0.8358,0.837,0.8194,0.8193,0.8191,0,0.833,0.8344,0.8377,0.8375,0.8348,0.8364,0.8354,0.834,0.8343,0.8343,0.8344,0.8347,0.8348,0.8351,0.8316,0.8282,0.8353,0.83,0.834,0.8341,0.8357,0.8356,0.8497,0.8363,0.8362,0.8362,0.8362,0,0.8443,0.8478,0.8425,0.8446,0.8482,0.8439,0.8476,0.846,0.8447,0.8463,0.8416,0.8431,0.8386,0.8396,0.837,0.84,0.8401,0.8388,0.8381,0.8392,0.8393,0.8393,0.8385,0.8365,0.8365,0.8364,0.8363,0,0.8571,0.8537,0.8569,0.854,0.8533,0.8561,0.8536,0.8553,0.853,0.855,0.8553,0.8517,0.8526,0.8492,0.8497,0.8479,0.8522,0.8506,0.8526,0.852,0.8561,0.8557,0.8706,0.8722,0.8579,0.8581,0.8582,0,0.8645,0.867,0.8642,0.8648,0.864,0.8651,0.8653,0.8611,0.8616,0.8602,0.8621,0.8626,0.8628,0.8646,0.862,0.8623,0.8604,0.8656,0.8605,0.8614,0.8602,0.86,0.8601,0.8667,0.8669,0.867,0.8671,0,0.8779,0.8759,0.8764,0.8763,0.8766,0.8763,0.8757,0.8765,0.8719,0.8726,0.8735,0.8736,0.8739,0.8744,0.8741,0.8729,0.8692,0.8687,0.8696,0.8707,0.8717,0.8709,0.8553,0.8684,0.8683,0.8682,0.8681,0.8681,0.888,0.8898,0.888,0.8886,0.8876,0.8871,0.8884,0.8862,0.8868,0.8866,0.884,0.8853,0.8838,0.8829,0.8821,0.883,0.8805,0.8819,0.8822,0.8826,0.8832,0.8716,0.8829,0.8829,0.8828,0.8828,0.8828,0,0.9009,0.8993,0.9,0.8991,0.8995,0.8958,0.8949,0.8955,0.8966,0.8955,0.8956,0.8964,0.8968,0.8942,0.8942,0.8954,0.8936,0.8955,0.8953,0.895,0.8855,0.8846,0.8968,0.8968,0.8968,0.8968,0.8968,0.8968,0.9076,0.9104,0.9082,0.9104,0.9088,0.9099,0.9096,0.909,0.908,0.9091,0.9093,0.9075,0.9057,0.9055,0.9056,0.9048,0.9049,0.9073,0.906,0.8971,0.8957,0.8944,0.8935,0.9075,0.9075,0.9153,0.9154,0.9155]}]]